STARLINK-1577, 46063

Orbit data source: Space-Track

STARLINK-1577, 46063 is a payload satellite owned by SpaceX/Seattle (US) in LEO that was launched on Fri, 07 Aug 2020 UTC via an FALCON 9 launch vehicle from the Air Force Eastern Test Range (AFETR). Payload-class satellites include a variety of spacecraft equipped with specific instruments for various scientific and technological missions. These include communications satellites like Starlink; space stations such as the ISS; scientific satellites like the Hubble; Earth observation satellites from companies like Planet Labs, Umbra, and HawkEye 360; GPS; miniature CubeSats for education and research; and military/defense satellites.

Loading next visibility...
Identifier
46063, 2020-055AN
Orbit
LEO
Country
Flag of USUS
Related business
Manufacturer
SpaceX/Seattle
Mission
Operational Commercial Communications
Bus & Motor
STARLINK, Unknown motor
Mass
260 kg wet, ~248 kg dry
Launch date (UTC)
2020-08-07 (5 years ago)
Launch vehicle
FALCON 9
Launch site
Air Force Eastern Test Range (AFETR)
Object type
Payload
Rocket body
Debris
Shape & HBR
Box + 1 Pan, 10.1 m
Radar Cross Section
13.562 m², Large (>1 m²)

Expand to show TLE details & history
Last TLE update: 17 hours ago

TLE from 17 hours ago
0 STARLINK-1577
1 46063U 20055AN  25307.74811399  .00001173  00000-0  97629-4 0  9999
2 46063  53.0559 321.9909 0001505  93.1949 266.9212 15.06399609290048
Epoch: 2025-11-03T17:57Z
TLE epoch observation values (Epoch: 2025-11-03T17:57:17.048Z)
Latitude
-0.00005°
Longitude
9.42479°
Altitude
548.148 km
Speed
7.589 km/s
True Right ascension
21h 27m 57s
True Declination
0° 00' 00"
Sunlit
Object was in daylight at epoch
Visualization orbit readout
Latitude
Unknown
Longitude
Unknown
Altitude
Unknown
Speed
Unknown
Apparent Right ascension
Unknown
Apparent Declination
Unknown
Sunlit
N/A
Visualization observer readout
Local Sidereal Time
06:59:26
Azimuth
Unknown
Elevation
Unknown
Doppler factor
Unknown
Orbital elements
Apogee altitude
548.526 km
Perigee altitude
546.441 km
Semi-major axis
6,925.62 km
Eccentricity
0.00015
Inclination
53.0559°
RAAN
321.9909°
Arg. of periapsis
93.1949°
True anomaly
266.90398°
Mean anomaly
266.9212°
Eccentric anomaly
266.91259°
Mean motion
3.76578 °/min
Orbital period
95.6 mins
BSTAR
0.000097629
Loading maneuver chart data...
Computing Atmospheric mass density...
Loading historical data...
Loading historical data...
Loading historical data...
Loading historical data...
Loading historical data...
Loading historical data...
Loading historical data...

Documentation

Showing up to 5 results
|